Location: El Peñón
(10.3719°N, 67.3319°W)
Time: 11:56:53
(UTC+00:00)

YAOGAN 1 - Pass Details

Date: 13 June 2024
Orbit: 611 x 613 km, 97.8° (Epoch: 22 July)

Event Time Altitude Azimuth Distance (km) Brightness Sun altitude
Rises 23:30:16 0° 167° (SSE) 2,870 5.6 -9.5°
Reaches altitude 10° 23:32:27 10° 167° (SSE) 1,966 4.8 -10.0°
Maximum altitude 23:36:43 85° 79° (E) 619 2.5 -10.9°
Drops below altitude 10° 23:41:00 10° 350° (N) 1,966 5.7 -11.9°
Sets 23:43:11 0° 350° (N) 2,870 6.5 -12.3°
